Watford City, ND

12:27 AM CST on December 07, 2019 (GMT -0600)
Watford City

Weather History for KS25 - October, 2019

Change the Weather History Date:

Thursday, October 10, 2019

  Actual Average (KISN) Record (KISN)
Temperature  
Mean Temperature 29 °F -  
Max Temperature 32 °F 60 °F 90 °F (1955)
Min Temperature 26 °F 33 °F 12 °F (1919)
Degree Days  
Heating Degree Days 36    
Moisture  
Dew Point 23 °F    
Average Humidity 80    
Maximum Humidity 100    
Minimum Humidity 64    
Precipitation  
Precipitation 0.00 in - - ()
Sea Level Pressure  
Sea Level Pressure 30.28 in    
Wind  
Wind Speed 13 mph (NNW)    
Max Wind Speed 21 mph    
Max Gust Speed 29 mph    
Visibility 10 miles    
Events Snow    
Averages and records for this station are not official NWS values.
T = Trace of Precipitation, MM = Missing Value Source: NWS Daily Summary

Daily Weather History Graph

Daily Weather History Graph

Search for Another Location

Airport or City:

Astronomy

Oct. 10, 2019 Rise Set
Actual Time 8:04 AM CDT 7:14 PM CDT
Civil Twilight 7:33 AM CDT 7:45 PM CDT
Nautical Twilight 6:57 AM CDT 8:21 PM CDT
Astronomical Twilight 6:21 AM CDT 8:57 PM CDT
Moon 6:34 PM CDT (10/10) 4:30 AM CDT (10/10)
Length of Visible Light 12h 11m
Length of Day
11h 10m
Waxing Gibbous, 91% of the Moon is Illuminated
Oct 10
Waxing Gibbous
Oct 13
Full
Oct 21
Last Quarter
Oct 27
New
Nov 4
First Quarter

Hourly Weather History & Observations

Time (CDT) Temp. Windchill Dew Point Humidity Pressure Visibility Wind Dir Wind Speed Gust Speed Precip Events Conditions
12:15 AM 28.4 °F 17.5 °F 26.6 °F 93% 30.26 in 4.0 mi NNW 13.8 mph - N/A Snow Light Snow
12:35 AM 28.4 °F 17.5 °F 26.6 °F 93% 30.27 in 4.0 mi NNW 13.8 mph 20.7 mph N/A Snow Light Snow
12:55 AM 28.4 °F 18.0 °F 26.6 °F 93% 30.28 in 5.0 mi NNW 12.7 mph - N/A Snow Light Snow
1:15 AM 28.4 °F 19.1 °F 26.6 °F 93% 30.28 in 6.0 mi North 10.4 mph - N/A Snow Light Snow
1:35 AM 28.4 °F 17.0 °F 26.6 °F 93% 30.26 in 6.0 mi North 15.0 mph - N/A Snow Light Snow
1:55 AM 28.4 °F 18.0 °F 26.6 °F 93% 30.28 in 5.0 mi NNW 12.7 mph 18.4 mph N/A Snow Light Snow
2:15 AM 26.6 °F 16.2 °F 26.6 °F 100% 30.28 in 9.0 mi NNW 11.5 mph - N/A Snow Light Snow
2:35 AM 26.6 °F 16.8 °F 26.6 °F 100% 30.26 in 10.0 mi NNW 10.4 mph - N/A Snow Light Snow
2:55 AM 26.6 °F 16.8 °F 26.6 °F 100% 30.27 in 10.0 mi NNW 10.4 mph 17.3 mph N/A   Overcast
3:15 AM 26.6 °F 16.8 °F 24.8 °F 93% 30.27 in 10.0 mi NNW 10.4 mph - N/A   Overcast
3:35 AM 26.6 °F 16.2 °F 24.8 °F 93% 30.27 in 10.0 mi NNW 11.5 mph - N/A   Overcast
3:55 AM 26.6 °F 16.8 °F 24.8 °F 93% 30.27 in 10.0 mi NNW 10.4 mph - N/A   Overcast
4:15 AM 28.4 °F 18.0 °F 23.0 °F 80% 30.27 in 10.0 mi NW 12.7 mph - N/A   Mostly Cloudy
4:35 AM 28.4 °F 19.7 °F 23.0 °F 80% 30.26 in 10.0 mi NNW 9.2 mph - N/A   Scattered Clouds
4:55 AM 26.6 °F 16.8 °F 23.0 °F 86% 30.26 in 10.0 mi NNW 10.4 mph - N/A   Partly Cloudy
5:15 AM 26.6 °F 16.2 °F 23.0 °F 86% 30.27 in 10.0 mi NNW 11.5 mph - N/A   Mostly Cloudy
5:35 AM 26.6 °F 16.8 °F 23.0 °F 86% 30.27 in 10.0 mi NW 10.4 mph 16.1 mph N/A   Scattered Clouds
5:55 AM 26.6 °F 16.8 °F 23.0 °F 86% 30.26 in 10.0 mi NNW 10.4 mph - N/A   Clear
6:15 AM 28.4 °F 19.1 °F 23.0 °F 80% 30.28 in 10.0 mi NNW 10.4 mph - N/A   Clear
6:35 AM 28.4 °F 20.4 °F 23.0 °F 80% 30.28 in 10.0 mi NNW 8.1 mph - N/A   Mostly Cloudy
6:55 AM 28.4 °F 19.1 °F 23.0 °F 80% 30.28 in 10.0 mi NNW 10.4 mph - N/A   Overcast
7:15 AM 26.6 °F 17.5 °F 23.0 °F 86% 30.29 in 10.0 mi NW 9.2 mph - N/A   Mostly Cloudy
7:35 AM 26.6 °F 17.5 °F 23.0 °F 86% 30.29 in 10.0 mi NNW 9.2 mph - N/A   Overcast
7:55 AM 26.6 °F 18.2 °F 23.0 °F 86% 30.29 in 10.0 mi NW 8.1 mph - N/A   Scattered Clouds
8:15 AM 26.6 °F 17.5 °F 23.0 °F 86% 30.30 in 10.0 mi NW 9.2 mph - N/A   Clear
8:35 AM 26.6 °F 17.5 °F 24.8 °F 93% 30.31 in 10.0 mi NW 9.2 mph - N/A   Partly Cloudy
8:55 AM 26.6 °F 16.8 °F 24.8 °F 93% 30.31 in 10.0 mi NNW 10.4 mph - N/A   Scattered Clouds
9:15 AM 28.4 °F 20.4 °F 24.8 °F 86% 30.31 in 10.0 mi NNW 8.1 mph 15.0 mph N/A   Scattered Clouds
9:35 AM 28.4 °F 19.1 °F 24.8 °F 86% 30.32 in 10.0 mi NNW 10.4 mph - N/A   Partly Cloudy
9:55 AM 28.4 °F 18.5 °F 24.8 °F 86% 30.31 in 10.0 mi NNW 11.5 mph - N/A   Partly Cloudy
10:15 AM 28.4 °F 17.5 °F 24.8 °F 86% 30.30 in 10.0 mi NNW 13.8 mph - N/A   Scattered Clouds
10:35 AM 28.4 °F 17.0 °F 24.8 °F 86% 30.30 in 10.0 mi NNW 15.0 mph - N/A   Clear
10:55 AM 28.4 °F 18.5 °F 24.8 °F 86% 30.31 in 10.0 mi NW 11.5 mph 18.4 mph N/A   Clear
11:15 AM 28.4 °F 16.6 °F 24.8 °F 86% 30.31 in 10.0 mi NW 16.1 mph - N/A   Clear
11:35 AM 30.2 °F 18.5 °F 24.8 °F 80% 30.31 in 10.0 mi NNW 17.3 mph - N/A   Clear
11:55 AM 30.2 °F 19.3 °F 24.8 °F 80% 30.31 in 10.0 mi NW 15.0 mph - N/A   Clear
12:15 PM 30.2 °F 19.3 °F 24.8 °F 80% 30.30 in 10.0 mi NW 15.0 mph 20.7 mph N/A   Partly Cloudy
12:35 PM 30.2 °F 19.3 °F 24.8 °F 80% 30.30 in 10.0 mi NW 15.0 mph 20.7 mph N/A   Clear
12:55 PM 30.2 °F 19.8 °F 24.8 °F 80% 30.29 in 10.0 mi NNW 13.8 mph 20.7 mph N/A   Partly Cloudy
1:15 PM 32.0 °F 21.2 °F 24.8 °F 75% 30.29 in 10.0 mi NNW 16.1 mph - N/A   Partly Cloudy
1:35 PM 32.0 °F 20.5 °F 24.8 °F 75% 30.29 in 10.0 mi NNW 18.4 mph - N/A   Scattered Clouds
1:55 PM 32.0 °F 21.6 °F 23.0 °F 69% 30.29 in 10.0 mi NNW 15.0 mph 25.3 mph N/A   Mostly Cloudy
2:15 PM 32.0 °F 20.5 °F 23.0 °F 69% 30.28 in 10.0 mi NNW 18.4 mph 25.3 mph N/A   Partly Cloudy
2:35 PM 32.0 °F 20.8 °F 23.0 °F 69% 30.28 in 10.0 mi NNW 17.3 mph 25.3 mph N/A   Partly Cloudy
2:55 PM 32.0 °F 20.1 °F 23.0 °F 69% 30.29 in 9.0 mi NNW 19.6 mph 26.5 mph N/A   Mostly Cloudy
3:15 PM 32.0 °F 21.2 °F 21.2 °F 64% 30.28 in 10.0 mi North 16.1 mph 25.3 mph N/A   Mostly Cloudy
3:55 PM 32.0 °F 20.5 °F 21.2 °F 64% 30.27 in 10.0 mi North 18.4 mph 25.3 mph N/A   Mostly Cloudy
4:35 PM 32.0 °F 20.1 °F 21.2 °F 64% 30.26 in 9.0 mi NNW 19.6 mph 28.8 mph N/A   Mostly Cloudy
4:55 PM 32.0 °F 20.1 °F 21.2 °F 64% 30.26 in 10.0 mi NNW 19.6 mph - N/A   Mostly Cloudy
5:15 PM 32.0 °F 20.1 °F 21.2 °F 64% 30.27 in 10.0 mi NNW 19.6 mph 27.6 mph N/A   Mostly Cloudy
5:35 PM 30.2 °F 17.4 °F 21.2 °F 69% 30.26 in 10.0 mi NNW 20.7 mph 27.6 mph N/A   Overcast
5:55 PM 30.2 °F 18.5 °F 19.4 °F 64% 30.26 in 10.0 mi NNW 17.3 mph 26.5 mph N/A   Overcast
6:15 PM 30.2 °F 19.3 °F 19.4 °F 64% 30.27 in 10.0 mi NNW 15.0 mph - N/A   Unknown
6:35 PM 30.2 °F 19.8 °F 19.4 °F 64% 30.27 in 10.0 mi NNW 13.8 mph 24.2 mph N/A   Overcast
6:55 PM 30.2 °F 18.5 °F 19.4 °F 64% 30.27 in 10.0 mi NNW 17.3 mph - N/A   Overcast
7:15 PM 30.2 °F 20.2 °F 19.4 °F 64% 30.27 in 10.0 mi NW 12.7 mph 19.6 mph N/A   Overcast
7:35 PM 30.2 °F 19.3 °F 21.2 °F 69% 30.27 in 10.0 mi NNW 15.0 mph - N/A   Overcast
7:55 PM 30.2 °F 20.2 °F 21.2 °F 69% 30.27 in 10.0 mi NW 12.7 mph 19.6 mph N/A   Overcast
8:15 PM 30.2 °F 20.2 °F 21.2 °F 69% 30.27 in 10.0 mi NW 12.7 mph - N/A   Scattered Clouds
8:35 PM 30.2 °F 21.3 °F 21.2 °F 69% 30.27 in 10.0 mi NW 10.4 mph 17.3 mph N/A   Partly Cloudy
8:55 PM 30.2 °F 21.9 °F 21.2 °F 69% 30.26 in 10.0 mi WNW 9.2 mph - N/A   Partly Cloudy
9:15 PM 30.2 °F 21.3 °F 21.2 °F 69% 30.26 in 10.0 mi NW 10.4 mph 16.1 mph N/A   Clear
9:35 PM 30.2 °F 21.9 °F 21.2 °F 69% 30.26 in 10.0 mi WNW 9.2 mph - N/A   Mostly Cloudy
9:55 PM 30.2 °F 21.3 °F 21.2 °F 69% 30.26 in 10.0 mi WNW 10.4 mph - N/A   Mostly Cloudy
10:15 PM 28.4 °F 19.7 °F 21.2 °F 74% 30.26 in 10.0 mi WNW 9.2 mph 15.0 mph N/A   Mostly Cloudy
10:35 PM 28.4 °F 19.1 °F 21.2 °F 74% 30.25 in 10.0 mi WNW 10.4 mph 16.1 mph N/A   Mostly Cloudy
10:55 PM 28.4 °F 19.1 °F 23.0 °F 80% 30.25 in 10.0 mi WNW 10.4 mph - N/A   Partly Cloudy
11:15 PM 28.4 °F 19.7 °F 23.0 °F 80% 30.24 in 10.0 mi WNW 9.2 mph 17.3 mph N/A   Clear
11:35 PM 28.4 °F 18.0 °F 23.0 °F 80% 30.24 in 10.0 mi WNW 12.7 mph - N/A   Clear
11:55 PM 28.4 °F 17.5 °F 23.0 °F 80% 30.23 in 10.0 mi WNW 13.8 mph 19.6 mph N/A   Clear